Starlink 3115

operational
NORAD ID: 49447 Int'l Des: 2021-104 Owner: SPXS Country: US Constellation: starlink
LEOCIRCULAR

About Starlink 3115

Description loading...

Live Position

Loading 3D Globe...

Upcoming Passes

Altitude History

Altitude vs Time

uPlot chart will show altitude changes over time

Two-Line Element Set

1 49447U 21104AR 25306.50615258 .00000373 00000-0 41556-4 0 9992
2 49447 53.2183 70.0678 0001314 87.5369 272.5773 15.08835598219576
Epoch: Nov 2, 2025 • Age: 7 hours

Current Status

Altitude 550.6 km
Velocity 7.59 km/s
Sub-Earth Point -32.76°S, 57.35°W
Launch Date Nov 13, 2021
Age 3.9 years
Type internet

Technical Details

Classification Payload
Mass 290.00 kg
Dry Mass 270.00 kg
Total Mass 290.00 kg
Length 0.20 m
Diameter 2.80 m
Span 9.00 m
Shape Box + pan
Manufacturer SPXS
Bus Type Starlink
Phase Status In Orbit
Owner/State SPXS/US

Large Constellations

Loading constellations...